| time (UTC) | temp C | wind direction | speed KPH | gust KPH | rain 1hr cm | rain 24hr cm | rain mn cm | humidity % | barometer mb |
| 20260504175311 | 20 | 172 | 3.2 | 11.3 | 0.00 | 0.00 | 0.00 | 43 | 1021.6 |
| 20260504174810 | 20 | 220 | 6.4 | 8.0 | 0.00 | 0.00 | 0.00 | 43 | 1021.6 |
| 20260504174307 | 19 | 180 | 8.0 | 16.1 | 0.00 | 0.00 | 0.00 | 41 | 1021.9 |
| 20260504173803 | 20 | 169 | 1.6 | 4.8 | 0.00 | 0.00 | 0.00 | 41 | 1021.6 |
| 20260504173300 | 20 | 203 | 3.2 | 12.9 | 0.00 | 0.00 | 0.00 | 40 | 1021.9 |
| 20260504172757 | 20 | 202 | 3.2 | 11.3 | 0.00 | 0.00 | 0.00 | 41 | 1021.9 |
| 20260504172254 | 20 | 122 | 0.0 | 0.0 | 0.00 | 0.00 | 0.00 | 38 | 1021.9 |
| 20260504171749 | 19 | 220 | 0.0 | 1.6 | 0.00 | 0.00 | 0.00 | 42 | 1021.9 |
| 20260504171247 | 20 | 190 | 4.8 | 9.7 | 0.00 | 0.00 | 0.00 | 41 | 1021.9 |
| 20260504170744 | 20 | 198 | 6.4 | 11.3 | 0.00 | 0.00 | 0.00 | 39 | 1021.9 |
| 20260504170241 | 19 | 158 | 0.0 | 0.0 | 0.00 | 0.00 | 0.00 | 38 | 1021.9 |
| 20260504160159 | 18 | 201 | 9.7 | 14.5 | 0.00 | 0.00 | 0.00 | 39 | 1023.4 |
| 20260504151127 | 17 | 188 | 0.0 | 0.0 | 0.00 | 0.00 | 0.00 | 39 | 1023.4 |
| 20260504150625 | 18 | 190 | 0.0 | 0.0 | 0.00 | 0.00 | 0.00 | 38 | 1023.7 |
| 20260504150121 | 17 | 184 | 4.8 | 17.7 | 0.00 | 0.00 | 0.00 | 39 | 1023.7 |
| 20260504141050 | 17 | 208 | 0.0 | 3.2 | 0.00 | 0.00 | 0.00 | 43 | 1023.7 |
| 20260504140546 | 17 | 210 | 0.0 | 0.0 | 0.00 | 0.00 | 0.00 | 42 | 1024.0 |
| 20260504130511 | 15 | 210 | 0.0 | 0.0 | 0.00 | 0.00 | 0.00 | 48 | 1024.4 |
| 20260504110358 | 8 | 161 | 0.0 | 0.0 | 0.00 | 0.00 | 0.00 | 65 | 1024.7 |
| 20260504100315 | 8 | 168 | 0.0 | 0.0 | 0.00 | 0.00 | 0.00 | 63 | 1024.4 |
| 20260504081709 | 7 | 170 | 0.0 | 0.0 | 0.00 | 0.00 | 0.00 | 63 | 1024.0 |
| 20260504081205 | 7 | 170 | 0.0 | 0.0 | 0.00 | 0.00 | 0.00 | 62 | 1023.7 |
| 20260504080701 | 7 | 143 | 0.0 | 0.0 | 0.00 | 0.00 | 0.00 | 62 | 1024.0 |
| 20260504080158 | 7 | 266 | 0.0 | 0.0 | 0.00 | 0.00 | 0.00 | 62 | 1024.0 |
| 20260504070126 | 7 | 151 | 0.0 | 0.0 | 0.00 | 0.00 | 0.00 | 62 | 1024.0 |
| 20260504050514 | 6 | 76 | 0.0 | 0.0 | 0.00 | 0.00 | 0.00 | 65 | 1023.4 |
| 20260504050012 | 5 | 30 | 0.0 | 0.0 | 0.00 | 0.00 | 0.00 | 63 | 1023.7 |
| 20260504045508 | 5 | 55 | 0.0 | 0.0 | 0.00 | 0.00 | 0.00 | 64 | 1023.7 |
| 20260504045003 | 6 | 31 | 0.0 | 0.0 | 0.00 | 0.00 | 0.00 | 61 | 1023.7 |
| 20260504044501 | 5 | 19 | 0.0 | 0.0 | 0.00 | 0.00 | 0.00 | 63 | 1023.7 |
| 20260504043958 | 6 | 44 | 0.0 | 0.0 | 0.00 | 0.00 | 0.00 | 63 | 1023.7 |
| 20260504043455 | 5 | 44 | 0.0 | 0.0 | 0.00 | 0.00 | 0.00 | 63 | 1023.7 |
| 20260504042952 | 5 | 45 | 0.0 | 0.0 | 0.00 | 0.00 | 0.00 | 64 | 1023.7 |
| 20260504042449 | 6 | 45 | 0.0 | 0.0 | 0.00 | 0.00 | 0.00 | 62 | 1023.7 |
| 20260504041946 | 6 | 45 | 0.0 | 0.0 | 0.00 | 0.00 | 0.00 | 61 | 1023.7 |
| 20260504041442 | 6 | 49 | 0.0 | 0.0 | 0.00 | 0.00 | 0.00 | 63 | 1023.7 |
| 20260504040937 | 6 | 49 | 0.0 | 0.0 | 0.00 | 0.00 | 0.00 | 62 | 1023.7 |
| 20260504040436 | 6 | 49 | 0.0 | 0.0 | 0.00 | 0.00 | 0.00 | 60 | 1023.7 |
| 20260504035931 | 6 | 49 | 0.0 | 0.0 | 0.00 | 0.00 | 0.00 | 61 | 1023.7 |
| 20260504035429 | 6 | 49 | 0.0 | 0.0 | 0.00 | 0.00 | 0.00 | 61 | 1023.4 |
| 20260504034926 | 6 | 49 | 0.0 | 0.0 | 0.00 | 0.00 | 0.00 | 61 | 1023.4 |
| 20260504034423 | 6 | 50 | 0.0 | 0.0 | 0.00 | 0.00 | 0.00 | 60 | 1023.7 |
| 20260504033920 | 6 | 50 | 0.0 | 0.0 | 0.00 | 0.00 | 0.00 | 61 | 1023.4 |
| 20260504033418 | 6 | 49 | 0.0 | 0.0 | 0.00 | 0.00 | 0.00 | 61 | 1023.4 |
| 20260504032915 | 6 | 49 | 0.0 | 0.0 | 0.00 | 0.00 | 0.00 | 60 | 1023.4 |
| 20260504032412 | 6 | 49 | 0.0 | 0.0 | 0.00 | 0.00 | 0.00 | 60 | 1023.4 |
| 20260504031908 | 6 | 49 | 0.0 | 0.0 | 0.00 | 0.00 | 0.00 | 62 | 1023.4 |
| 20260504031405 | 6 | 49 | 0.0 | 0.0 | 0.00 | 0.00 | 0.00 | 63 | 1023.4 |
| 20260504030902 | 6 | 50 | 0.0 | 0.0 | 0.00 | 0.00 | 0.00 | 61 | 1023.4 |
| 20260504030359 | 6 | 50 | 0.0 | 0.0 | 0.00 | 0.00 | 0.00 | 61 | 1023.4 |
| 20260504025855 | 6 | 50 | 0.0 | 0.0 | 0.00 | 0.00 | 0.00 | 61 | 1023.4 |
| 20260504025352 | 6 | 50 | 0.0 | 0.0 | 0.00 | 0.00 | 0.00 | 62 | 1023.4 |
| 20260504024849 | 6 | 49 | 0.0 | 0.0 | 0.00 | 0.00 | 0.00 | 61 | 1023.4 |
| 20260504024345 | 6 | 50 | 0.0 | 0.0 | 0.00 | 0.00 | 0.00 | 61 | 1023.4 |
| 20260504023842 | 6 | 50 | 0.0 | 0.0 | 0.00 | 0.00 | 0.00 | 59 | 1023.4 |
| 20260504023339 | 6 | 49 | 0.0 | 0.0 | 0.00 | 0.00 | 0.00 | 59 | 1023.4 |
| 20260504022834 | 6 | 49 | 0.0 | 0.0 | 0.00 | 0.00 | 0.00 | 62 | 1023.4 |
| 20260504022332 | 6 | 49 | 0.0 | 0.0 | 0.00 | 0.00 | 0.00 | 61 | 1023.4 |
| 20260504021828 | 6 | 49 | 0.0 | 0.0 | 0.00 | 0.00 | 0.00 | 61 | 1023.0 |
| 20260504021326 | 6 | 49 | 0.0 | 0.0 | 0.00 | 0.00 | 0.00 | 60 | 1023.4 |
| 20260504020823 | 6 | 48 | 0.0 | 0.0 | 0.00 | 0.00 | 0.00 | 61 | 1023.0 |
| 20260504020319 | 6 | 36 | 0.0 | 0.0 | 0.00 | 0.00 | 0.00 | 56 | 1023.4 |
| 20260504015815 | 6 | 83 | 0.0 | 0.0 | 0.00 | 0.00 | 0.00 | 61 | 1023.4 |
| 20260504015312 | 6 | 87 | 0.0 | 0.0 | 0.00 | 0.00 | 0.00 | 59 | 1023.0 |
| 20260504014808 | 6 | 87 | 0.0 | 0.0 | 0.00 | 0.00 | 0.00 | 59 | 1023.4 |
| 20260504014304 | 6 | 87 | 0.0 | 0.0 | 0.00 | 0.00 | 0.00 | 58 | 1023.0 |
| 20260504013802 | 7 | 87 | 0.0 | 0.0 | 0.00 | 0.00 | 0.00 | 56 | 1023.0 |
| 20260504013300 | 7 | 86 | 0.0 | 0.0 | 0.00 | 0.00 | 0.00 | 58 | 1023.0 |
| 20260504012755 | 7 | 86 | 0.0 | 0.0 | 0.00 | 0.00 | 0.00 | 57 | 1023.0 |
| 20260504012254 | 7 | 86 | 0.0 | 0.0 | 0.00 | 0.00 | 0.00 | 56 | 1023.0 |
| 20260504011750 | 7 | 97 | 0.0 | 0.0 | 0.00 | 0.00 | 0.00 | 57 | 1022.6 |
| 20260504011247 | 7 | 98 | 0.0 | 0.0 | 0.00 | 0.00 | 0.00 | 56 | 1022.6 |
| 20260504010743 | 7 | 97 | 0.0 | 0.0 | 0.00 | 0.00 | 0.00 | 55 | 1022.6 |
| 20260504010238 | 7 | 97 | 0.0 | 0.0 | 0.00 | 0.00 | 0.00 | 56 | 1022.2 |
| 20260504005736 | 7 | 88 | 0.0 | 0.0 | 0.00 | 0.00 | 0.00 | 57 | 1022.2 |
| 20260504005233 | 7 | 88 | 0.0 | 0.0 | 0.00 | 0.00 | 0.00 | 57 | 1022.2 |
| 20260504004731 | 7 | 88 | 0.0 | 0.0 | 0.00 | 0.00 | 0.00 | 57 | 1022.6 |
| 20260504004227 | 7 | 88 | 0.0 | 0.0 | 0.00 | 0.00 | 0.00 | 55 | 1022.2 |
| 20260504003724 | 7 | 88 | 0.0 | 0.0 | 0.00 | 0.00 | 0.00 | 56 | 1022.2 |
| 20260504003221 | 7 | 89 | 0.0 | 0.0 | 0.00 | 0.00 | 0.00 | 56 | 1021.9 |
| 20260504002718 | 7 | 88 | 0.0 | 0.0 | 0.00 | 0.00 | 0.00 | 55 | 1021.9 |
| 20260504002214 | 7 | 88 | 0.0 | 0.0 | 0.00 | 0.00 | 0.00 | 54 | 1021.6 |
| 20260504001712 | 8 | 88 | 0.0 | 0.0 | 0.00 | 0.00 | 0.00 | 54 | 1021.6 |
| 20260504001209 | 8 | 88 | 0.0 | 0.0 | 0.00 | 0.00 | 0.00 | 53 | 1021.6 |
| 20260504000706 | 8 | 88 | 0.0 | 0.0 | 0.00 | 0.00 | 0.00 | 51 | 1021.6 |
| 20260504000204 | 8 | 88 | 0.0 | 0.0 | 0.00 | 0.00 | 0.00 | 50 | 1021.6 |
| 20260503235701 | 8 | 88 | 0.0 | 0.0 | 0.00 | 0.00 | 0.00 | 48 | 1021.6 |
| 20260503235157 | 9 | 88 | 0.0 | 0.0 | 0.00 | 0.00 | 0.00 | 47 | 1021.6 |
| 20260503234655 | 10 | 88 | 0.0 | 0.0 | 0.00 | 0.00 | 0.00 | 45 | 1021.6 |
| 20260503234154 | 10 | 88 | 0.0 | 0.0 | 0.00 | 0.00 | 0.00 | 45 | 1021.6 |
| 20260503233650 | 11 | 88 | 0.0 | 0.0 | 0.00 | 0.00 | 0.00 | 42 | 1021.6 |
| 20260503233146 | 11 | 55 | 0.0 | 0.0 | 0.00 | 0.00 | 0.00 | 42 | 1021.6 |
| 20260503232643 | 11 | 138 | 0.0 | 0.0 | 0.00 | 0.00 | 0.00 | 41 | 1021.6 |
| 20260503232140 | 11 | 129 | 0.0 | 0.0 | 0.00 | 0.00 | 0.00 | 42 | 1021.2 |
| 20260503231638 | 11 | 137 | 0.0 | 0.0 | 0.00 | 0.00 | 0.00 | 41 | 1021.2 |
| 20260503231134 | 11 | 92 | 0.0 | 0.0 | 0.00 | 0.00 | 0.00 | 41 | 1021.2 |
| 20260503230631 | 11 | 209 | 0.0 | 0.0 | 0.00 | 0.00 | 0.00 | 41 | 1021.2 |
| 20260503230129 | 12 | 43 | 0.0 | 0.0 | 0.00 | 0.00 | 0.00 | 42 | 1021.2 |
| 20260503225626 | 12 | 65 | 0.0 | 0.0 | 0.00 | 0.00 | 0.00 | 40 | 1021.2 |
| 20260503225125 | 12 | 251 | 0.0 | 0.0 | 0.00 | 0.00 | 0.00 | 40 | 1020.9 |
| 20260503224623 | 12 | 148 | 0.0 | 0.0 | 0.00 | 0.00 | 0.00 | 39 | 1020.9 |
| 20260503224121 | 12 | 37 | 0.0 | 0.0 | 0.00 | 0.00 | 0.00 | 38 | 1020.9 |
| 20260503223619 | 12 | 243 | 0.0 | 1.6 | 0.00 | 0.00 | 0.00 | 38 | 1020.9 |
| 20260503223114 | 12 | 143 | 0.0 | 0.0 | 0.00 | 0.00 | 0.00 | 39 | 1020.9 |
| 20260503222612 | 12 | 25 | 0.0 | 0.0 | 0.00 | 0.00 | 0.00 | 40 | 1020.9 |
| 20260503222110 | 12 | 133 | 0.0 | 0.0 | 0.00 | 0.00 | 0.00 | 40 | 1020.9 |
| 20260503221608 | 12 | 316 | 0.0 | 0.0 | 0.00 | 0.00 | 0.00 | 38 | 1020.9 |
| 20260503221105 | 12 | 88 | 0.0 | 0.0 | 0.00 | 0.00 | 0.00 | 40 | 1020.9 |
| 20260503220601 | 12 | 137 | 0.0 | 0.0 | 0.00 | 0.00 | 0.00 | 38 | 1020.9 |
| 20260503220058 | 12 | 118 | 0.0 | 0.0 | 0.00 | 0.00 | 0.00 | 41 | 1020.9 |
| 20260503215555 | 12 | 35 | 0.0 | 0.0 | 0.00 | 0.00 | 0.00 | 39 | 1020.9 |
| 20260503215052 | 12 | 2 | 0.0 | 0.0 | 0.00 | 0.00 | 0.00 | 39 | 1020.9 |
| 20260503214550 | 12 | 226 | 0.0 | 0.0 | 0.00 | 0.00 | 0.00 | 39 | 1020.9 |
| 20260503214046 | 12 | 44 | 3.2 | 8.0 | 0.00 | 0.00 | 0.00 | 38 | 1021.2 |
| 20260503213545 | 13 | 155 | 0.0 | 0.0 | 0.00 | 0.00 | 0.00 | 39 | 1020.9 |
| 20260503213041 | 13 | 88 | 0.0 | 0.0 | 0.00 | 0.00 | 0.00 | 40 | 1020.9 |
| 20260503212539 | 12 | 11 | 0.0 | 0.0 | 0.00 | 0.00 | 0.00 | 41 | 1020.9 |
| 20260503212036 | 12 | 57 | 0.0 | 0.0 | 0.00 | 0.00 | 0.00 | 41 | 1020.9 |
| 20260503211533 | 12 | 174 | 0.0 | 0.0 | 0.00 | 0.00 | 0.00 | 41 | 1020.9 |
| 20260503211028 | 13 | 22 | 0.0 | 0.0 | 0.00 | 0.00 | 0.00 | 40 | 1020.9 |
| 20260503210526 | 12 | 79 | 0.0 | 1.6 | 0.00 | 0.00 | 0.00 | 41 | 1020.9 |
| 20260503210021 | 12 | 218 | 0.0 | 3.2 | 0.00 | 0.00 | 0.00 | 41 | 1020.9 |
| 20260503205518 | 12 | 0 | 0.0 | 0.0 | 0.00 | 0.00 | 0.00 | 42 | 1020.9 |
| 20260503205015 | 12 | 280 | 0.0 | 0.0 | 0.00 | 0.00 | 0.00 | 41 | 1020.9 |
| 20260503204512 | 12 | 41 | 0.0 | 0.0 | 0.00 | 0.00 | 0.00 | 41 | 1020.9 |
| 20260503204009 | 12 | 30 | 0.0 | 0.0 | 0.00 | 0.00 | 0.00 | 41 | 1020.9 |
| 20260503203506 | 12 | 135 | 0.0 | 0.0 | 0.00 | 0.00 | 0.00 | 42 | 1020.9 |
| 20260503203003 | 12 | 14 | 14.5 | 22.5 | 0.00 | 0.00 | 0.00 | 40 | 1020.9 |
| 20260503202501 | 12 | 19 | 0.0 | 1.6 | 0.00 | 0.00 | 0.00 | 43 | 1020.9 |
| 20260503201959 | 12 | 315 | 1.6 | 4.8 | 0.00 | 0.00 | 0.00 | 40 | 1020.9 |
| 20260503201456 | 12 | 27 | 8.0 | 11.3 | 0.00 | 0.00 | 0.00 | 41 | 1020.9 |
| 20260503200953 | 11 | 38 | 0.0 | 0.0 | 0.00 | 0.00 | 0.00 | 43 | 1020.9 |
| 20260503200450 | 11 | 41 | 0.0 | 1.6 | 0.00 | 0.00 | 0.00 | 42 | 1020.9 |
| 20260503195946 | 11 | 11 | 0.0 | 0.0 | 0.00 | 0.00 | 0.00 | 43 | 1020.9 |
| 20260503195444 | 11 | 46 | 4.8 | 12.9 | 0.00 | 0.00 | 0.00 | 43 | 1020.9 |
| 20260503194940 | 11 | 201 | 3.2 | 9.7 | 0.00 | 0.00 | 0.00 | 43 | 1020.9 |
| 20260503194437 | 11 | 262 | 0.0 | 0.0 | 0.00 | 0.00 | 0.00 | 44 | 1020.9 |
| 20260503193932 | 11 | 349 | 16.1 | 25.7 | 0.00 | 0.00 | 0.00 | 42 | 1020.9 |
| 20260503193428 | 11 | 15 | 1.6 | 8.0 | 0.00 | 0.00 | 0.00 | 42 | 1020.9 |
| 20260503192924 | 11 | 47 | 0.0 | 0.0 | 0.00 | 0.00 | 0.00 | 43 | 1020.9 |
| 20260503192421 | 12 | 36 | 3.2 | 11.3 | 0.00 | 0.00 | 0.00 | 41 | 1020.9 |
| 20260503191916 | 12 | 315 | 0.0 | 0.0 | 0.00 | 0.00 | 0.00 | 42 | 1020.9 |
| 20260503191414 | 12 | 23 | 4.8 | 9.7 | 0.00 | 0.00 | 0.00 | 42 | 1020.5 |
| 20260503190910 | 13 | 182 | 0.0 | 0.0 | 0.00 | 0.00 | 0.00 | 40 | 1020.5 |
| 20260503190408 | 12 | 37 | 0.0 | 0.0 | 0.00 | 0.00 | 0.00 | 42 | 1020.5 |
| 20260503185904 | 12 | 312 | 1.6 | 4.8 | 0.00 | 0.00 | 0.00 | 40 | 1020.5 |
| 20260503185401 | 12 | 356 | 1.6 | 8.0 | 0.00 | 0.00 | 0.00 | 41 | 1020.5 |
| 20260503184900 | 12 | 73 | 0.0 | 0.0 | 0.00 | 0.00 | 0.00 | 44 | 1020.9 |
| 20260503184356 | 12 | 356 | 0.0 | 3.2 | 0.00 | 0.00 | 0.00 | 42 | 1020.5 |
| 20260503183853 | 12 | 61 | 4.8 | 11.3 | 0.00 | 0.00 | 0.00 | 40 | 1020.5 |
| 20260503183350 | 12 | 44 | 0.0 | 0.0 | 0.00 | 0.00 | 0.00 | 42 | 1020.5 |
| 20260503182847 | 12 | 24 | 1.6 | 4.8 | 0.00 | 0.00 | 0.00 | 40 | 1020.9 |
| 20260503182346 | 11 | 5 | 6.4 | 11.3 | 0.00 | 0.00 | 0.00 | 41 | 1020.5 |
| 20260503181842 | 12 | 75 | 0.0 | 0.0 | 0.00 | 0.00 | 0.00 | 43 | 1020.5 |
| 20260503181340 | 12 | 34 | 1.6 | 8.0 | 0.00 | 0.00 | 0.00 | 42 | 1020.9 |
| 20260503180836 | 11 | 168 | 0.0 | 0.0 | 0.00 | 0.00 | 0.00 | 44 | 1020.5 |
| 20260503180334 | 11 | 31 | 0.0 | 1.6 | 0.00 | 0.00 | 0.00 | 43 | 1020.9 |
| 20260503175830 | 12 | 14 | 0.0 | 0.0 | 0.00 | 0.00 | 0.00 | 46 | 1020.9 |